KE4OGG Weather Reports


Display with metric or nautical units.
time (UTC)temp
F
wind
direction
speed
MPH
gust
MPH
rain 1hr
in
rain 24hr
in
rain mn
in
humidity
%
barometer
mb
20260504213521 78 207 0.0 3.0 0.00 0.00 0.00 22 1014.7
20260504213038 78 181 0.0 3.0 0.00 0.00 0.00 21 1014.7
20260504212524 77 260 0.0 2.0 0.00 0.00 0.00 22 1014.6
20260504212022 77 261 0.0 4.0 0.00 0.00 0.00 21 1014.8
20260504211539 78 147 0.0 4.0 0.00 0.00 0.00 21 1014.7
20260504211022 77 128 0.0 3.0 0.00 0.00 0.00 22 1014.8
20260504210524 77 124 0.0 3.0 0.00 0.00 0.00 22 1014.8
20260504210042 77 168 0.0 4.0 0.00 0.00 0.00 22 1014.8
20260504205522 77 264 1.0 9.0 0.00 0.00 0.00 22 1014.8
20260504205022 77 131 0.0 10.0 0.00 0.00 0.00 23 1014.9
20260504204547 76 128 2.0 10.0 0.00 0.00 0.00 23 1015.0
20260504204027 76 97 3.0 10.0 0.00 0.00 0.00 23 1014.9
20260504203523 77 155 5.0 8.0 0.00 0.00 0.00 23 1015.1
20260504203053 77 125 1.0 12.0 0.00 0.00 0.00 24 1015.1
20260504202523 76 94 5.0 12.0 0.00 0.00 0.00 22 1015.1
20260504202024 78 178 1.0 12.0 0.00 0.00 0.00 22 1015.0
20260504201538 76 131 2.0 12.0 0.00 0.00 0.00 24 1015.0
20260504201025 78 122 4.0 11.0 0.00 0.00 0.00 21 1014.9
20260504200523 78 128 3.0 12.0 0.00 0.00 0.00 23 1015.1
20260504200038 78 151 3.0 12.0 0.00 0.00 0.00 23 1015.1
20260504195523 78 139 2.0 11.0 0.00 0.00 0.00 24 1015.1
20260504195023 79 88 1.0 11.0 0.00 0.00 0.00 21 1015.1
20260504194537 80 87 2.0 11.0 0.00 0.00 0.00 19 1015.2
20260504194020 81 149 1.0 3.0 0.00 0.00 0.00 18 1015.3
20260504193523 80 285 1.0 3.0 0.00 0.00 0.00 20 1015.3
20260504193035 80 283 1.0 3.0 0.00 0.00 0.00 19 1015.3
20260504192522 81 0 0.0 2.0 0.00 0.00 0.00 20 1015.4
20260504192023 81 122 0.0 2.0 0.00 0.00 0.00 18 1015.5
20260504191541 80 262 0.0 5.0 0.00 0.00 0.00 20 1015.6
20260504191024 79 107 1.0 5.0 0.00 0.00 0.00 19 1015.5
20260504190524 78 0 1.0 5.0 0.00 0.00 0.00 22 1015.6
20260504190054 77 289 2.0 5.0 0.00 0.00 0.00 22 1015.7
20260504185527 77 285 1.0 10.0 0.00 0.00 0.00 23 1015.8
20260504185024 76 252 2.0 10.0 0.00 0.00 0.00 25 1015.8
20260504184538 76 118 4.0 10.0 0.00 0.00 0.00 22 1015.9
20260504184024 77 109 3.0 10.0 0.00 0.00 0.00 22 1016.0
20260504183524 77 115 3.0 8.0 0.00 0.00 0.00 22 1016.1
20260504183038 77 223 0.0 6.0 0.00 0.00 0.00 22 1016.1
20260504182531 76 6 1.0 8.0 0.00 0.00 0.00 26 1016.2
20260504182026 75 233 5.0 9.0 0.00 0.00 0.00 23 1016.2
20260504181543 76 165 2.0 10.0 0.00 0.00 0.00 24 1016.4
20260504181024 76 101 4.0 10.0 0.00 0.00 0.00 23 1016.3
20260504180527 77 118 1.0 7.0 0.00 0.00 0.00 25 1016.4
20260504180041 77 73 1.0 7.0 0.00 0.00 0.00 23 1016.5
20260504175523 76 275 0.0 7.0 0.00 0.00 0.00 23 1016.5
20260504175024 76 106 4.0 7.0 0.00 0.00 0.00 21 1016.6
20260504174540 78 260 1.0 3.0 0.00 0.00 0.00 22 1016.7
20260504174026 77 132 0.0 6.0 0.00 0.00 0.00 24 1016.8
20260504173524 76 167 1.0 7.0 0.00 0.00 0.00 25 1016.8
20260504173038 74 120 2.0 7.0 0.00 0.00 0.00 27 1016.9
20260504172523 75 89 3.0 7.0 0.00 0.00 0.00 26 1017.0
20260504172025 75 120 2.0 6.0 0.00 0.00 0.00 25 1016.8
20260504171538 76 111 2.0 6.0 0.00 0.00 0.00 23 1017.0
20260504171025 76 290 1.0 4.0 0.00 0.00 0.00 21 1017.0
20260504170524 77 109 0.0 4.0 0.00 0.00 0.00 19 1016.9
20260504151023 68 296 1.0 4.0 0.00 0.00 0.00 27 1018.3
20260504150529 69 290 0.0 3.0 0.00 0.00 0.00 28 1018.3
20260504141023 65 292 3.0 6.0 0.00 0.00 0.00 34 1018.3
20260504140525 65 326 0.0 5.0 0.00 0.00 0.00 38 1018.3
20260504130525 57 284 2.0 4.0 0.00 0.00 0.00 45 1018.3
20260504110522 43 0 0.0 0.0 0.00 0.00 0.00 64 1018.0
20260504100521 44 0 0.0 0.0 0.00 0.00 0.00 61 1017.5
20260504081537 48 0 0.0 0.0 0.00 0.00 0.00 55 1017.5
20260504081025 48 0 0.0 0.0 0.00 0.00 0.00 55 1017.3
20260504080525 48 0 0.0 0.0 0.00 0.00 0.00 55 1017.3
20260504050523 51 0 0.0 1.0 0.00 0.00 0.00 50 1018.0
20260504045523 51 0 0.0 1.0 0.00 0.00 0.00 51 1018.0
20260504045023 51 0 0.0 0.0 0.00 0.00 0.00 52 1017.8
20260504044539 51 0 0.0 0.0 0.00 0.00 0.00 50 1017.7
20260504044028 51 0 0.0 0.0 0.00 0.00 0.00 50 1017.7
20260504043524 51 0 0.0 0.0 0.00 0.00 0.00 49 1017.6
20260504043038 52 0 0.0 0.0 0.00 0.00 0.00 49 1017.7
20260504042525 52 0 0.0 0.0 0.00 0.00 0.00 49 1017.6
20260504042024 53 0 0.0 0.0 0.00 0.00 0.00 46 1017.7
20260504041538 53 0 0.0 1.0 0.00 0.00 0.00 46 1017.9
20260504041024 53 0 0.0 1.0 0.00 0.00 0.00 46 1017.9
20260504040524 53 0 0.0 1.0 0.00 0.00 0.00 46 1017.9
20260504040038 53 0 0.0 0.0 0.00 0.00 0.00 45 1017.9
20260504035524 53 0 0.0 0.0 0.00 0.00 0.00 45 1017.9
20260504035023 53 0 0.0 0.0 0.00 0.00 0.00 45 1017.8
20260504034542 54 0 0.0 0.0 0.00 0.00 0.00 45 1017.9
20260504034028 54 0 0.0 0.0 0.00 0.00 0.00 44 1017.9
20260504033524 54 0 0.0 0.0 0.00 0.00 0.00 44 1017.9
20260504033040 54 0 0.0 0.0 0.00 0.00 0.00 43 1017.8
20260504032524 55 0 0.0 1.0 0.00 0.00 0.00 43 1017.9
20260504032024 55 0 0.0 1.0 0.00 0.00 0.00 42 1017.8
20260504031539 55 0 0.0 1.0 0.00 0.00 0.00 42 1017.8
20260504031023 55 0 0.0 1.0 0.00 0.00 0.00 41 1017.8
20260504030523 56 0 0.0 1.0 0.00 0.00 0.00 41 1017.7
20260504030042 56 0 0.0 1.0 0.00 0.00 0.00 41 1017.7
20260504025523 56 0 0.0 1.0 0.00 0.00 0.00 41 1017.6
20260504025023 56 0 0.0 1.0 0.00 0.00 0.00 41 1017.7
20260504024535 56 0 0.0 1.0 0.00 0.00 0.00 41 1017.6
20260504024023 56 0 0.0 1.0 0.00 0.00 0.00 41 1017.6
20260504023523 56 0 0.0 1.0 0.00 0.00 0.00 40 1017.6
20260504023035 57 0 0.0 1.0 0.00 0.00 0.00 40 1017.4
20260504022528 57 255 0.0 1.0 0.00 0.00 0.00 40 1017.4
20260504022024 57 0 0.0 1.0 0.00 0.00 0.00 40 1017.3
20260504021540 57 191 0.0 0.0 0.00 0.00 0.00 40 1017.3
20260504021022 57 0 0.0 0.0 0.00 0.00 0.00 40 1017.3
20260504020523 57 0 0.0 0.0 0.00 0.00 0.00 41 1017.2
20260504020038 57 0 0.0 0.0 0.00 0.00 0.00 41 1017.3
20260504015524 57 0 0.0 0.0 0.00 0.00 0.00 41 1017.1
20260504015030 57 0 0.0 0.0 0.00 0.00 0.00 42 1017.1
20260504014552 57 0 0.0 0.0 0.00 0.00 0.00 41 1017.0
20260504014027 57 0 0.0 0.0 0.00 0.00 0.00 40 1017.0
20260504013523 58 0 0.0 0.0 0.00 0.00 0.00 40 1017.0
20260504013041 58 0 0.0 0.0 0.00 0.00 0.00 40 1016.8
20260504012525 58 0 0.0 0.0 0.00 0.00 0.00 40 1016.8
20260504012023 58 0 0.0 0.0 0.00 0.00 0.00 40 1016.7
20260504011536 59 0 0.0 0.0 0.00 0.00 0.00 40 1016.7
20260504011022 59 183 0.0 0.0 0.00 0.00 0.00 39 1016.7
20260504010527 59 0 0.0 0.0 0.00 0.00 0.00 39 1016.8
20260504010041 60 0 0.0 0.0 0.00 0.00 0.00 38 1016.7
20260504005523 60 0 0.0 2.0 0.00 0.00 0.00 37 1016.7
20260504005026 61 0 0.0 2.0 0.00 0.00 0.00 36 1016.7
20260504004540 61 0 0.0 1.0 0.00 0.00 0.00 36 1016.7
20260504004023 61 135 0.0 1.0 0.00 0.00 0.00 35 1016.6
20260504003524 62 136 0.0 1.0 0.00 0.00 0.00 35 1016.6
20260504003041 62 118 0.0 1.0 0.00 0.00 0.00 34 1016.4
20260504002523 63 119 0.0 1.0 0.00 0.00 0.00 34 1016.4
20260504002023 63 117 0.0 1.0 0.00 0.00 0.00 33 1016.3
20260504001546 63 128 0.0 1.0 0.00 0.00 0.00 33 1016.3
20260504001023 64 129 0.0 1.0 0.00 0.00 0.00 32 1016.1
20260504000522 65 129 0.0 1.0 0.00 0.00 0.00 31 1016.2
20260504000043 65 273 0.0 1.0 0.00 0.00 0.00 30 1016.1
20260503235523 66 273 0.0 1.0 0.00 0.00 0.00 30 1016.1
20260503235024 67 0 0.0 3.0 0.00 0.00 0.00 28 1016.1
20260503234541 67 150 1.0 3.0 0.00 0.00 0.00 28 1016.0
20260503234024 66 215 1.0 5.0 0.00 0.00 0.00 28 1016.0
20260503233523 66 103 0.0 5.0 0.00 0.00 0.00 28 1016.1
20260503233045 67 82 1.0 5.0 0.00 0.00 0.00 27 1016.1
20260503232523 67 111 0.0 3.0 0.00 0.00 0.00 27 1016.0
20260503232023 67 109 1.0 4.0 0.00 0.00 0.00 26 1016.1
20260503231543 67 237 1.0 4.0 0.00 0.00 0.00 25 1016.0
20260503231025 68 148 0.0 4.0 0.00 0.00 0.00 25 1016.0
20260503230527 68 0 0.0 1.0 0.00 0.00 0.00 26 1016.1
20260503230037 68 152 0.0 2.0 0.00 0.00 0.00 25 1016.1
20260503225525 68 0 0.0 4.0 0.00 0.00 0.00 24 1016.2
20260503225024 69 0 1.0 4.0 0.00 0.00 0.00 23 1016.1
20260503224540 69 93 1.0 3.0 0.00 0.00 0.00 23 1016.1
20260503224028 70 228 1.0 3.0 0.00 0.00 0.00 22 1016.1
20260503223523 70 146 0.0 6.0 0.00 0.00 0.00 23 1016.1
20260503223036 70 129 1.0 6.0 0.00 0.00 0.00 23 1016.2
20260503222523 70 0 0.0 3.0 0.00 0.00 0.00 21 1016.2
20260503222023 71 278 1.0 6.0 0.00 0.00 0.00 21 1016.2
20260503221549 72 131 1.0 6.0 0.00 0.00 0.00 20 1016.1
20260503221024 73 121 1.0 6.0 0.00 0.00 0.00 20 1016.1
20260503220524 73 166 1.0 6.0 0.00 0.00 0.00 20 1016.2
20260503220040 73 149 1.0 5.0 0.00 0.00 0.00 19 1016.2
20260503215523 73 179 1.0 4.0 0.00 0.00 0.00 21 1016.2
20260503215023 73 259 0.0 4.0 0.00 0.00 0.00 22 1016.3
20260503214537 72 297 0.0 3.0 0.00 0.00 0.00 21 1016.4
20260503214026 71 297 0.0 5.0 0.00 0.00 0.00 21 1016.4